[[{"header":{"parameterUnit":"m.s-1","parameterCategory":2,"la1":30.2991,"la2":30.254,"lo1":-89.0895,"lo2":-89.0444,"dy":0.0017,"dx":0.0017,"nx":28,"ny":28,"refTime":"2024-03-13T21:00:00:Z","depth":"0","parameterNumber":2,"parameterNumberName":"U-component_of_CURRENTS"},"data":[0,0,0,0,0,0,0,0,0,0,0,0,0,0,0,0,0,0,0,0,0,0,0,0,0,0,0,0,0,0,0,0,0,0,0,0,0,0,0,0,0,0,0,0,0,0,0,0,0,0,0,0,0,0,0,0,0,0,-0.2935,-0.2936,0,-0.2962,-0.2962,-0.2962,-0.2841,-0.2838,-0.2835,-0.2833,-0.278,-0.2781,-0.2782,0,0,0,0,0,0,0,0,0,0,0,0,0,-0.2756,-0.2759,-0.2935,-0.2936,-0.2937,-0.2962,-0.2962,-0.2962,-0.2842,-0.2838,-0.2835,-0.2831,-0.2779,-0.2781,-0.2782,0,0,0,0,0,0,0,0,0,0,0,0,0,-0.2807,-0.276,-0.2935,-0.2885,-0.2881,-0.2962,-0.2962,-0.2961,-0.2842,-0.2838,-0.2834,-0.283,-0.2779,-0.2781,-0.2783,-0.2882,0,0,-0.2789,-0.2789,0,0,0,0,0,0,0,0,-0.2804,-0.2813,-0.2891,-0.2889,-0.2885,-0.29,-0.288,-0.2933,-0.2843,-0.285,-0.2832,-0.2827,-0.282,-0.2819,-0.2825,-0.2879,-0.2877,-0.2789,-0.279,-0.2791,-0.2791,0,0,0,0,0,0,0,-0.2801,-0.2811,-0.2939,-0.2893,-0.2889,-0.2854,-0.2856,-0.2889,-0.2852,-0.2849,-0.2842,-0.2857,-0.2816,-0.2823,-0.2822,-0.2876,-0.2789,-0.279,-0.2792,-0.2792,-0.2968,-0.2971,0,0,0,0,0,0,-0.2818,-0.2809,-0.2938,-0.294,-0.2841,-0.2861,-0.2863,-0.2894,-0.2853,-0.2846,-0.2861,-0.2852,-0.2822,-0.282,-0.282,-0.2884,-0.2791,-0.2793,-0.2794,-0.2964,-0.2969,-0.2972,0,0,0,0,0,0,-0.2815,-0.2831,-0.2937,-0.2878,-0.289,-0.287,-0.2905,-0.2897,-0.2896,-0.2865,-0.2853,-0.2868,-0.2818,-0.2817,-0.2855,-0.2882,-0.2793,-0.2795,-0.296,-0.2966,-0.2971,-0.3044,0,0,0,0,0,0,-0.281,-0.2829,-0.2856,-0.2881,-0.2895,-0.3,-0.2909,-0.2901,-0.2916,-0.2904,-0.2869,-0.2859,-0.2815,-0.2853,-0.2857,-0.2883,-0.2797,-0.2956,-0.2963,-0.2969,-0.3037,-0.3051,-0.3063,0,0,0,0,0,-0.2804,-0.2862,-0.2858,-0.2873,-0.2933,-0.3003,-0.3008,-0.2971,-0.2921,-0.2948,-0.2917,-0.2859,-0.2897,-0.2859,-0.2863,-0.2889,-0.2953,-0.2961,-0.2968,-0.3032,-0.3049,-0.3063,0,0,0,0,0,0,-0.2795,-0.2858,-0.2852,-0.2925,-0.2968,-0.2985,-0.3009,-0.2993,-0.2993,-0.2968,-0.2916,-0.2908,-0.2948,-0.2935,-0.2894,-0.2965,-0.2913,-0.2922,-0.296,-0.2976,-0.2989,-0.2935,-0.2798,0,0,0,0,0,-0.2815,-0.2868,-0.2923,-0.2979,-0.3007,-0.3014,-0.3035,-0.3021,-0.3029,-0.3021,-0.3005,-0.299,-0.2994,-0.2993,-0.3004,-0.306,-0.2987,-0.3082,-0.3094,-0.3105,-0.307,-0.3001,-0.3001,-0.2998,-0.2998,-0.2998,0,0,-0.2822,-0.2867,-0.2893,-0.298,-0.3001,-0.3055,-0.3013,-0.3063,-0.3083,-0.3024,-0.3049,-0.3046,-0.3024,-0.3065,-0.3082,-0.3048,-0.3078,-0.3115,-0.3124,-0.3081,-0.3008,-0.3007,-0.3007,-0.3004,-0.3003,-0.3002,0,0,-0.2866,-0.2914,-0.2967,-0.302,-0.3082,-0.3096,-0.3119,-0.3161,-0.3151,-0.3206,-0.315,-0.316,-0.3196,-0.3163,-0.3152,-0.3258,-0.3155,-0.328,-0.3289,-0.3225,-0.3222,-0.3219,-0.3149,-0.3138,-0.3278,-0.3278,-0.3278,0,-0.2866,-0.2939,-0.2994,-0.3063,-0.3093,-0.3118,-0.3166,-0.3194,-0.3236,-0.3226,-0.3222,-0.3232,-0.3228,-0.3221,-0.3249,-0.3278,-0.3219,-0.3223,-0.3233,-0.3228,-0.3223,-0.3152,-0.3139,-0.3283,-0.3282,-0.3282,-0.3281,0,-0.2941,-0.3001,-0.3045,-0.3125,-0.3179,-0.3231,-0.3282,-0.3318,-0.3316,-0.3315,-0.3332,-0.3334,-0.3312,-0.3342,-0.3322,-0.3302,-0.3266,-0.3258,-0.3174,-0.3226,-0.3151,-0.3136,-0.3289,-0.3287,-0.3286,-0.3285,0,0,-0.2901,-0.3059,-0.3062,-0.3087,-0.3204,-0.3234,-0.3309,-0.3343,-0.3323,-0.3386,-0.335,-0.3396,-0.3368,-0.3355,-0.3345,-0.33,-0.3241,-0.3264,-0.3259,-0.3159,-0.3081,-0.3056,-0.3036,-0.3224,-0.3221,-0.3219,-0.3048,0,-0.2914,-0.3016,-0.3105,-0.3168,-0.3209,-0.3277,-0.3323,-0.3361,-0.3375,-0.3364,-0.3364,-0.3339,-0.3383,-0.335,-0.3329,-0.3253,-0.3202,-0.3287,-0.3074,-0.3067,-0.3008,-0.3018,-0.2909,-0.2746,-0.3033,-0.3031,-0.3029,0,-0.2926,-0.2985,-0.3055,-0.3137,-0.3158,-0.3202,-0.322,-0.3271,-0.3293,-0.3299,-0.3301,-0.329,-0.326,-0.3274,-0.3173,-0.3221,-0.315,-0.3098,-0.309,-0.3014,-0.3013,-0.274,-0.2707,-0.2692,-0.3005,-0.3007,-0.3008,0,-0.2796,-0.2928,-0.2957,-0.2997,-0.3116,-0.313,-0.3172,-0.3222,-0.3226,-0.3226,-0.3203,-0.3198,-0.3148,-0.3096,-0.3053,-0.3081,-0.2913,-0.2934,-0.2844,-0.2841,-0.2676,-0.2663,-0.256,-0.2823,-0.2824,-0.2824,-0.2825,0,-0.275,-0.2763,-0.2887,-0.2898,-0.2897,-0.3017,-0.2999,-0.3053,-0.3088,-0.3067,-0.3132,-0.3099,-0.3092,-0.3031,-0.3,-0.2883,-0.2873,-0.2816,-0.2786,-0.2708,-0.2701,-0.2622,-0.2648,-0.2818,-0.2819,-0.282,-0.2821,0,-0.2607,-0.2701,-0.2725,-0.2822,-0.2842,-0.2828,-0.2903,-0.2893,-0.2949,-0.2921,-0.2912,-0.2966,-0.2907,-0.2904,-0.2792,-0.278,-0.2629,-0.2643,-0.2561,-0.2526,-0.2445,-0.248,-0.2285,-0.2226,-0.2491,-0.2489,-0.2488,0,-0.255,-0.2554,-0.2628,-0.2625,-0.2665,-0.2676,-0.2694,-0.2793,-0.2796,-0.2841,-0.281,-0.2779,-0.2761,-0.2639,-0.2595,-0.2508,-0.2518,-0.235,-0.2394,-0.2399,-0.2415,-0.2432,-0.2398,-0.2205,-0.2201,-0.2198,-0.2196,0,-0.2416,-0.244,-0.2457,-0.246,-0.247,-0.2485,-0.2519,-0.2509,-0.2617,-0.2619,-0.2624,-0.2613,-0.2549,-0.2442,-0.2363,-0.231,-0.2294,-0.2285,-0.2284,-0.217,-0.2177,-0.212,-0.2375,-0.2169,-0.2171,-0.2173,-0.2175,-0.2176,-0.2289,-0.2266,-0.2287,-0.2276,-0.2294,-0.2289,-0.2244,-0.2307,-0.2307,-0.2294,-0.2387,-0.2338,-0.2305,-0.2198,-0.2158,-0.2038,-0.2093,-0.1969,-0.2003,-0.2014,-0.198,-0.2193,-0.1978,-0.1979,-0.1981,-0.1982,-0.1983,0,-0.2131,-0.2125,-0.2107,-0.209,-0.2048,-0.2115,-0.2119,-0.2064,-0.2029,-0.2072,-0.2057,-0.2029,-0.1933,-0.1933,-0.1842,-0.1769,-0.1738,-0.1733,-0.1716,-0.169,-0.184,-0.1855,-0.1611,-0.1611,-0.1611,-0.1611,-0.1612,-0.1612,-0.2038,-0.1968,-0.1969,-0.1848,-0.1837,-0.1736,-0.1708,-0.1681,-0.1678,-0.163,-0.163,-0.1667,-0.1693,-0.1787,-0.1694,-0.1628,-0.16,-0.1536,-0.1584,-0.1706,-0.1731,-0.1755,-0.1776,-0.1519,-0.1519,-0.1355,-0.1354,-0.1353]},{"header":{"parameterUnit":"m.s-1","parameterCategory":2,"la1":30.2991,"la2":30.254,"lo1":-89.0895,"lo2":-89.0444,"dy":0.0017,"dx":0.0017,"nx":28,"ny":28,"refTime":"2024-03-13T21:00:00:Z","depth":"0","parameterNumber":3,"parameterNumberName":"V-component_of_CURRENTS"},"data":[0,0,0,0,0,0,0,0,0,0,0,0,0,0,0,0,0,0,0,0,0,0,0,0,0,0,0,0,0,0,0,0,0,0,0,0,0,0,0,0,0,0,0,0,0,0,0,0,0,0,0,0,0,0,0,0,0,0,-0.0222,-0.0221,0,-0.0146,-0.0145,-0.0145,-0.0102,-0.0102,-0.0102,-0.0102,0.0001,0.0003,0.0005,0,0,0,0,0,0,0,0,0,0,0,0,0,-0.0277,-0.0277,-0.0222,-0.0221,-0.022,-0.0146,-0.0145,-0.0144,-0.0102,-0.0102,-0.0102,-0.0101,-0.0,0.0003,0.0006,0,0,0,0,0,0,0,0,0,0,0,0,0,-0.0234,-0.0276,-0.0222,-0.0189,-0.0185,-0.0146,-0.0145,-0.0144,-0.0102,-0.0102,-0.0102,-0.0101,-0.0001,0.0002,0.0006,0.0022,0,0,0.0017,0.0019,0,0,0,0,0,0,0,0,-0.0236,-0.0232,-0.0195,-0.0191,-0.0187,-0.0132,-0.0127,-0.0087,-0.0102,-0.0135,-0.0101,-0.0101,-0.0041,-0.0034,-0.0022,0.0027,0.0031,0.0018,0.002,0.0022,0.0023,0,0,0,0,0,0,0,-0.0239,-0.0234,-0.0193,-0.0194,-0.0189,-0.016,-0.0154,-0.0119,-0.0091,-0.0132,-0.0129,-0.0118,-0.0039,-0.0026,-0.002,0.0033,0.0018,0.0021,0.0023,0.0025,0.0145,0.0146,0,0,0,0,0,0,-0.0249,-0.0238,-0.0196,-0.0191,-0.021,-0.0159,-0.0152,-0.0151,-0.0092,-0.0083,-0.0119,-0.0117,-0.0033,-0.0024,-0.0016,0.0039,0.0022,0.0025,0.0027,0.0144,0.0146,0.0147,0,0,0,0,0,0,-0.0251,-0.0247,-0.0199,-0.0211,-0.0203,-0.0159,-0.0157,-0.015,-0.0137,-0.0082,-0.0072,-0.0113,-0.0032,-0.0021,0.0024,0.0042,0.0027,0.003,0.0143,0.0145,0.0146,0.0127,0,0,0,0,0,0,-0.0253,-0.0248,-0.0256,-0.0212,-0.0202,-0.0177,-0.0157,-0.0149,-0.013,-0.0127,-0.0074,-0.0064,-0.0031,0.0019,0.0028,0.0047,0.0033,0.0142,0.0144,0.0146,0.0127,0.0128,0.0129,0,0,0,0,0,-0.0256,-0.0269,-0.0258,-0.0252,-0.0214,-0.0177,-0.017,-0.0138,-0.0131,-0.0125,-0.0083,-0.0066,0.0037,0.0022,0.0033,0.0053,0.0141,0.0143,0.0146,0.0126,0.0128,0.0129,0,0,0,0,0,0,-0.0304,-0.0264,-0.0251,-0.0254,-0.0218,-0.017,-0.0167,-0.0142,-0.0107,-0.0106,-0.0056,-0.0043,0.0005,0.0031,0.0013,0.0095,0.0093,0.0097,0.0075,0.0076,0.0077,0.0063,0.0036,0,0,0,0,0,-0.0318,-0.0316,-0.0268,-0.0273,-0.0257,-0.0214,-0.0198,-0.0173,-0.0133,-0.0118,-0.0075,-0.0027,0.0023,0.0048,0.0091,0.0131,0.015,0.0153,0.0154,0.0154,0.0152,0.0215,0.0222,0.0154,0.0154,0.0154,0,0,-0.0341,-0.0318,-0.032,-0.0283,-0.0257,-0.0235,-0.0204,-0.0183,-0.0158,-0.0112,-0.0071,-0.0025,0.0034,0.0084,0.0108,0.0108,0.0178,0.0157,0.0157,0.0154,0.0218,0.0225,0.0231,0.0155,0.0155,0.0155,0,0,-0.0382,-0.0364,-0.0372,-0.034,-0.0299,-0.0262,-0.0257,-0.0204,-0.0174,-0.0127,-0.0082,-0.0022,0.0041,0.0099,0.0133,0.0166,0.0181,0.0174,0.0171,0.0233,0.0239,0.0244,0.0248,0.0254,0.0176,0.0176,0.0176,0,-0.0415,-0.0413,-0.0369,-0.0359,-0.0338,-0.0276,-0.0271,-0.0226,-0.0162,-0.0132,-0.0118,0.0005,0.0054,0.0134,0.0148,0.017,0.0181,0.0159,0.0233,0.0239,0.0245,0.0248,0.0255,0.0175,0.0176,0.0176,0.0176,0,-0.0449,-0.0444,-0.0445,-0.0409,-0.0378,-0.0365,-0.0292,-0.0255,-0.021,-0.0157,-0.0074,0.0007,0.0078,0.0112,0.014,0.0211,0.0195,0.0225,0.0225,0.0251,0.0252,0.0259,0.0175,0.0175,0.0175,0.0175,0,0,-0.0531,-0.0483,-0.0483,-0.0476,-0.0404,-0.0386,-0.0332,-0.0265,-0.0235,-0.0146,-0.0096,0.0017,0.0061,0.0104,0.016,0.0222,0.027,0.0232,0.0236,0.0225,0.0359,0.0385,0.0395,0.031,0.0312,0.0313,0.0331,0,-0.0575,-0.058,-0.0531,-0.0525,-0.0519,-0.0437,-0.0395,-0.0321,-0.0247,-0.0179,-0.0064,0.0001,0.006,0.0089,0.0167,0.0246,0.0294,0.026,0.0345,0.0346,0.036,0.0408,0.0449,0.0474,0.0338,0.034,0.0341,0,-0.0622,-0.0618,-0.063,-0.0584,-0.0574,-0.0554,-0.0479,-0.0432,-0.0307,-0.025,-0.0145,-0.0061,0.0053,0.0093,0.0248,0.0218,0.028,0.0343,0.0346,0.0384,0.0389,0.0434,0.0492,0.0617,0.0352,0.0351,0.0351,0,-0.0706,-0.0683,-0.07,-0.0684,-0.0622,-0.0609,-0.057,-0.0462,-0.0421,-0.03,-0.0259,-0.0105,-0.004,0.0088,0.023,0.0232,0.0383,0.0404,0.0482,0.0481,0.0543,0.0546,0.0729,0.0506,0.0506,0.0506,0.0506,0,-0.0767,-0.0778,-0.0747,-0.0756,-0.0766,-0.0694,-0.0678,-0.0609,-0.0514,-0.0467,-0.0314,-0.0244,-0.0036,0.0087,0.0209,0.0369,0.037,0.0487,0.0508,0.0534,0.0536,0.0667,0.0706,0.0507,0.0507,0.0506,0.0506,0,-0.0844,-0.0827,-0.0846,-0.0815,-0.0808,-0.0816,-0.0761,-0.074,-0.0647,-0.0582,-0.0549,-0.0354,-0.0182,0.0014,0.0217,0.0331,0.0562,0.0532,0.0522,0.0543,0.0739,0.0774,0.094,0.1008,0.062,0.0621,0.0622,0,-0.0878,-0.0904,-0.0907,-0.0924,-0.0914,-0.0912,-0.0905,-0.0819,-0.0784,-0.0643,-0.0614,-0.0434,-0.0269,0.0036,0.028,0.0502,0.0603,0.0642,0.0681,0.0769,0.0824,0.0842,0.0888,0.0732,0.0733,0.0735,0.0736,0,-0.094,-0.095,-0.0965,-0.1011,-0.1026,-0.103,-0.1009,-0.0997,-0.0888,-0.0811,-0.0669,-0.0531,-0.0209,0.0113,0.0403,0.0533,0.0742,0.0676,0.0801,0.0961,0.0962,0.1029,0.065,0.0749,0.0747,0.0746,0.0746,0.0745,-0.0982,-0.1016,-0.1046,-0.1084,-0.111,-0.1125,-0.1111,-0.106,-0.0997,-0.0819,-0.0708,-0.0436,-0.0012,0.0439,0.058,0.0895,0.0853,0.0997,0.1033,0.1044,0.113,0.0749,0.086,0.0859,0.0858,0.0858,0.0858,0,-0.1015,-0.1058,-0.1108,-0.1151,-0.1187,-0.1179,-0.1154,-0.11,-0.1005,-0.0798,-0.0609,-0.0097,0.0315,0.0682,0.1115,0.1263,0.129,0.1326,0.1383,0.1416,0.1121,0.1149,0.1288,0.1288,0.1288,0.1288,0.1288,0.1288,-0.1036,-0.1094,-0.1122,-0.1196,-0.1226,-0.1227,-0.1201,-0.1093,-0.0927,-0.0552,-0.0214,0.0054,0.0552,0.1218,0.1594,0.1606,0.1727,0.17,0.176,0.1578,0.1551,0.1524,0.1565,0.1789,0.179,0.2059,0.2062,0.2064]}],[{"header":{"parameterUnit":"m.s-1","parameterCategory":2,"la1":30.2991,"la2":30.254,"lo1":-89.0895,"lo2":-89.0444,"dy":0.0017,"dx":0.0017,"nx":28,"ny":28,"refTime":"2024-03-13T21:00:00:Z","depth":"2","parameterNumber":2,"parameterNumberName":"U-component_of_CURRENTS"},"data":[0,0,0,0,0,0,0,0,0,0,0,0,0,0,0,0,0,0,0,0,0,0,0,0,0,0,0,0,0,0,0,0,0,0,0,0,0,0,0,0,0,0,0,0,0,0,0,0,0,0,0,0,0,0,0,0,0,0,-0.2497,-0.2498,0,-0.2513,-0.2513,-0.2513,-0.2436,-0.2434,-0.2432,-0.243,-0.2412,-0.2413,-0.2414,0,0,0,0,0,0,0,0,0,0,0,0,0,-0.2376,-0.2378,-0.2497,-0.2498,-0.2498,-0.2513,-0.2513,-0.2513,-0.2436,-0.2434,-0.2432,-0.243,-0.2412,-0.2413,-0.2414,0,0,0,0,0,0,0,0,0,0,0,0,0,-0.2409,-0.2379,-0.2497,-0.2466,-0.2463,-0.2513,-0.2513,-0.2513,-0.2436,-0.2434,-0.2431,-0.2429,-0.2411,-0.2413,-0.2414,-0.2478,0,0,-0.242,-0.242,0,0,0,0,0,0,0,0,-0.2407,-0.2413,-0.247,-0.2468,-0.2466,-0.2474,-0.2464,-0.2501,-0.2437,-0.2441,-0.243,-0.2427,-0.2435,-0.2435,-0.2437,-0.2477,-0.2476,-0.242,-0.2421,-0.2422,-0.2422,0,0,0,0,0,0,0,-0.2405,-0.2412,-0.2498,-0.2471,-0.2468,-0.2443,-0.2444,-0.247,-0.2448,-0.2441,-0.2436,-0.2447,-0.2432,-0.2435,-0.2436,-0.2476,-0.242,-0.2421,-0.2422,-0.2423,-0.2538,-0.2539,0,0,0,0,0,0,-0.2418,-0.241,-0.2498,-0.2499,-0.2435,-0.2448,-0.2449,-0.247,-0.2448,-0.2444,-0.245,-0.2444,-0.2433,-0.2434,-0.2435,-0.2486,-0.2422,-0.2423,-0.2424,-0.2536,-0.2538,-0.254,0,0,0,0,0,0,-0.2416,-0.2427,-0.2497,-0.2458,-0.2466,-0.2453,-0.2477,-0.2472,-0.2472,-0.2457,-0.245,-0.2455,-0.2431,-0.2432,-0.2453,-0.2485,-0.2424,-0.2426,-0.2533,-0.2536,-0.2539,-0.2603,0,0,0,0,0,0,-0.2412,-0.2426,-0.2443,-0.246,-0.2469,-0.2532,-0.248,-0.2474,-0.2486,-0.2478,-0.2461,-0.2455,-0.2429,-0.245,-0.2454,-0.2486,-0.2427,-0.2531,-0.2535,-0.2538,-0.2598,-0.2608,-0.2616,0,0,0,0,0,-0.2408,-0.2442,-0.2444,-0.2455,-0.2494,-0.2534,-0.2536,-0.2513,-0.2489,-0.2501,-0.2482,-0.2456,-0.2477,-0.2454,-0.2458,-0.2491,-0.2529,-0.2533,-0.2538,-0.2594,-0.2606,-0.2616,0,0,0,0,0,0,-0.2396,-0.2439,-0.244,-0.2485,-0.2512,-0.2522,-0.2534,-0.2529,-0.2526,-0.2514,-0.2485,-0.2481,-0.2512,-0.2502,-0.2477,-0.2536,-0.2499,-0.2505,-0.254,-0.2551,-0.256,-0.2538,-0.2428,0,0,0,0,0,-0.2409,-0.244,-0.2478,-0.2512,-0.253,-0.2538,-0.255,-0.2546,-0.255,-0.2544,-0.2538,-0.2532,-0.254,-0.2542,-0.2551,-0.2591,-0.254,-0.2616,-0.2625,-0.2632,-0.2618,-0.2563,-0.2564,-0.2555,-0.2555,-0.2555,0,0,-0.2414,-0.2441,-0.2458,-0.2512,-0.2525,-0.2558,-0.2536,-0.2568,-0.2585,-0.2548,-0.2568,-0.2571,-0.256,-0.2591,-0.2605,-0.2582,-0.2614,-0.2638,-0.2644,-0.2626,-0.2568,-0.2568,-0.2568,-0.2558,-0.2557,-0.2557,0,0,-0.2432,-0.2467,-0.2493,-0.2523,-0.2562,-0.2579,-0.2596,-0.2626,-0.2625,-0.2665,-0.2633,-0.2645,-0.2676,-0.2657,-0.2654,-0.2724,-0.2666,-0.2746,-0.2767,-0.2715,-0.2714,-0.2712,-0.2662,-0.2655,-0.2745,-0.2745,-0.2745,0,-0.2433,-0.2473,-0.2508,-0.2538,-0.2561,-0.2592,-0.2622,-0.2645,-0.2675,-0.2679,-0.2677,-0.2702,-0.2698,-0.2707,-0.2728,-0.274,-0.2701,-0.2725,-0.2722,-0.2719,-0.2716,-0.2665,-0.2656,-0.2749,-0.2748,-0.2748,-0.2748,0,-0.2462,-0.2497,-0.2518,-0.2566,-0.2602,-0.2637,-0.268,-0.271,-0.2728,-0.2742,-0.2772,-0.2771,-0.277,-0.2792,-0.2782,-0.2779,-0.2756,-0.274,-0.2685,-0.272,-0.2665,-0.2655,-0.2754,-0.2753,-0.2751,-0.2751,0,0,-0.2442,-0.2522,-0.2524,-0.2539,-0.2617,-0.264,-0.2694,-0.2738,-0.2741,-0.2794,-0.2788,-0.2833,-0.2829,-0.2825,-0.2822,-0.279,-0.2752,-0.2765,-0.2761,-0.2698,-0.2635,-0.2593,-0.2578,-0.2733,-0.2732,-0.273,-0.2608,0,-0.2444,-0.2494,-0.2543,-0.2584,-0.261,-0.2664,-0.27,-0.2744,-0.2777,-0.2785,-0.2803,-0.2805,-0.2844,-0.2833,-0.282,-0.2762,-0.2728,-0.2786,-0.2625,-0.262,-0.2563,-0.2565,-0.2397,-0.2271,-0.2598,-0.2596,-0.2595,0,-0.2438,-0.2471,-0.2515,-0.257,-0.2585,-0.2619,-0.2661,-0.2699,-0.2737,-0.2756,-0.2783,-0.2791,-0.2784,-0.279,-0.2723,-0.276,-0.2705,-0.2662,-0.2655,-0.2579,-0.2559,-0.2288,-0.2239,-0.2577,-0.2579,-0.258,-0.2581,0,-0.2366,-0.2441,-0.2468,-0.249,-0.2569,-0.2586,-0.2627,-0.2681,-0.2694,-0.2721,-0.272,-0.2737,-0.271,-0.2673,-0.2641,-0.2663,-0.2537,-0.2543,-0.2454,-0.245,-0.2253,-0.2235,-0.2465,-0.2465,-0.2465,-0.2466,-0.2466,0,-0.2331,-0.234,-0.2431,-0.2436,-0.2449,-0.2529,-0.2536,-0.258,-0.262,-0.2618,-0.2687,-0.2673,-0.2675,-0.2632,-0.2605,-0.2505,-0.2507,-0.2443,-0.2409,-0.2277,-0.2263,-0.2487,-0.2491,-0.2461,-0.2462,-0.2463,-0.2464,0,-0.2228,-0.2297,-0.2313,-0.2391,-0.2412,-0.2411,-0.2474,-0.2478,-0.2536,-0.2528,-0.2532,-0.2586,-0.2542,-0.254,-0.245,-0.2429,-0.2349,-0.2308,-0.2164,-0.2117,-0.2304,-0.2313,-0.2178,-0.2175,-0.2173,-0.2171,-0.217,0,-0.2177,-0.2182,-0.2249,-0.2252,-0.2281,-0.2304,-0.2322,-0.241,-0.242,-0.2472,-0.2452,-0.2441,-0.2419,-0.2314,-0.2259,-0.2178,-0.2258,-0.1972,-0.1988,-0.2289,-0.2271,-0.2284,-0.2296,-0.175,-0.1745,-0.1741,-0.1738,0,-0.2062,-0.2089,-0.2102,-0.2117,-0.2136,-0.2151,-0.2188,-0.219,-0.2281,-0.2291,-0.2296,-0.2285,-0.2222,-0.2077,-0.1998,-0.1937,-0.1983,-0.1889,-0.2187,-0.1877,-0.1883,-0.1867,-0.1893,-0.1703,-0.1706,-0.1709,-0.1711,-0.1712,-0.1954,-0.1935,-0.196,-0.1959,-0.1986,-0.1987,-0.1948,-0.2005,-0.2008,-0.1991,-0.2076,-0.1995,-0.1981,-0.178,-0.1697,-0.1632,-0.1766,-0.1678,-0.169,-0.1707,-0.1707,-0.1712,-0.1498,-0.15,-0.1502,-0.1504,-0.1506,0,-0.1814,-0.1813,-0.1804,-0.1797,-0.1768,-0.1834,-0.1842,-0.1784,-0.1745,-0.1767,-0.1742,-0.1553,-0.147,-0.1469,-0.132,-0.1302,-0.1293,-0.1243,-0.1226,-0.1261,-0.1293,-0.1273,-0.0948,-0.0947,-0.0945,-0.0944,0,0,-0.1733,-0.1675,-0.1677,-0.1583,-0.1581,-0.1493,-0.1469,-0.142,-0.1398,-0.1303,-0.1256,-0.1352,-0.1406,-0.1167,-0.1123,-0.1009,-0.1123,-0.0959,-0.1403,-0.1415,-0.1445,-0.1535,-0.1544,0,0,0,0,0]},{"header":{"parameterUnit":"m.s-1","parameterCategory":2,"la1":30.2991,"la2":30.254,"lo1":-89.0895,"lo2":-89.0444,"dy":0.0017,"dx":0.0017,"nx":28,"ny":28,"refTime":"2024-03-13T21:00:00:Z","depth":"2","parameterNumber":3,"parameterNumberName":"V-component_of_CURRENTS"},"data":[0,0,0,0,0,0,0,0,0,0,0,0,0,0,0,0,0,0,0,0,0,0,0,0,0,0,0,0,0,0,0,0,0,0,0,0,0,0,0,0,0,0,0,0,0,0,0,0,0,0,0,0,0,0,0,0,0,0,-0.0281,-0.028,0,-0.0222,-0.0222,-0.0221,-0.0177,-0.0176,-0.0176,-0.0175,-0.008,-0.0078,-0.0076,0,0,0,0,0,0,0,0,0,0,0,0,0,-0.0317,-0.0317,-0.0281,-0.028,-0.0279,-0.0222,-0.0222,-0.0221,-0.0177,-0.0176,-0.0176,-0.0175,-0.0081,-0.0079,-0.0076,0,0,0,0,0,0,0,0,0,0,0,0,0,-0.0286,-0.0317,-0.0281,-0.025,-0.0246,-0.0223,-0.0222,-0.0221,-0.0177,-0.0176,-0.0176,-0.0175,-0.0082,-0.0079,-0.0076,-0.0073,0,0,-0.0066,-0.0065,0,0,0,0,0,0,0,0,-0.0288,-0.0285,-0.0255,-0.0252,-0.0248,-0.0205,-0.0199,-0.0169,-0.0177,-0.0205,-0.0175,-0.0175,-0.0118,-0.0112,-0.0105,-0.0068,-0.0064,-0.0066,-0.0064,-0.0063,-0.0062,0,0,0,0,0,0,0,-0.029,-0.0287,-0.0259,-0.0254,-0.025,-0.0225,-0.022,-0.0194,-0.0167,-0.0202,-0.0199,-0.019,-0.0116,-0.0109,-0.0103,-0.0063,-0.0066,-0.0064,-0.0062,-0.006,0.0005,0.0005,0,0,0,0,0,0,-0.0297,-0.0289,-0.0261,-0.0257,-0.0265,-0.0225,-0.022,-0.0221,-0.0168,-0.0159,-0.0191,-0.0188,-0.0114,-0.0106,-0.0099,-0.007,-0.0063,-0.006,-0.0058,0.0005,0.0005,0.0005,0,0,0,0,0,0,-0.0299,-0.0296,-0.0263,-0.027,-0.0264,-0.0226,-0.0227,-0.022,-0.021,-0.016,-0.015,-0.0187,-0.0113,-0.0103,-0.0075,-0.0067,-0.0059,-0.0056,0.0005,0.0005,0.0005,-0.0026,0,0,0,0,0,0,-0.03,-0.0297,-0.0306,-0.0271,-0.0264,-0.0255,-0.0227,-0.0219,-0.0205,-0.0201,-0.0153,-0.0144,-0.0112,-0.008,-0.0072,-0.0062,-0.0054,0.0005,0.0005,0.0005,-0.0025,-0.0027,-0.0029,0,0,0,0,0,-0.0302,-0.0318,-0.0307,-0.0303,-0.0276,-0.0255,-0.025,-0.022,-0.0206,-0.0207,-0.0172,-0.0145,-0.0075,-0.0078,-0.0068,-0.0058,0.0005,0.0005,0.0005,-0.0024,-0.0027,-0.0029,0,0,0,0,0,0,-0.0344,-0.0314,-0.0301,-0.0309,-0.0285,-0.0247,-0.0248,-0.0225,-0.02,-0.0197,-0.0148,-0.0136,-0.0108,-0.0084,-0.0087,-0.0041,-0.003,-0.0028,-0.0055,-0.0057,-0.006,-0.0061,-0.0051,0,0,0,0,0,-0.0356,-0.036,-0.0324,-0.0333,-0.0323,-0.0287,-0.0276,-0.0255,-0.0225,-0.0213,-0.0176,-0.0138,-0.0103,-0.0082,-0.0052,-0.0029,0.0004,-0.0016,-0.0018,-0.002,-0.0016,0.0041,0.0044,0.0004,0.0004,0.0004,0,0,-0.0377,-0.036,-0.0364,-0.0342,-0.0323,-0.0315,-0.0279,-0.0269,-0.0257,-0.0207,-0.0185,-0.0147,-0.01,-0.0071,-0.0056,-0.0048,0.0005,-0.002,-0.0022,-0.0017,0.0041,0.0045,0.0049,0.0004,0.0004,0.0004,0,0,-0.0418,-0.0404,-0.0417,-0.0399,-0.0371,-0.0344,-0.0342,-0.0304,-0.0282,-0.0256,-0.0214,-0.0171,-0.0127,-0.0082,-0.0056,-0.0054,-0.0012,-0.0047,-0.0053,0.0002,0.0006,0.001,0.0043,0.005,-0.0044,-0.0044,-0.0044,0,-0.0444,-0.0452,-0.0419,-0.0422,-0.041,-0.036,-0.0365,-0.0336,-0.0292,-0.0268,-0.0256,-0.0164,-0.0128,-0.007,-0.0069,-0.0056,-0.0027,-0.0046,0.0,0.0005,0.001,0.0042,0.0051,-0.0046,-0.0045,-0.0045,-0.0045,0,-0.0487,-0.0491,-0.0497,-0.0481,-0.0464,-0.0463,-0.0413,-0.0391,-0.0355,-0.0312,-0.0252,-0.0193,-0.0134,-0.0115,-0.009,-0.0036,-0.0028,-0.0012,0.0008,0.0012,0.0046,0.0055,-0.0048,-0.0047,-0.0047,-0.0046,0,0,-0.0553,-0.0533,-0.0535,-0.0533,-0.0494,-0.0484,-0.046,-0.0415,-0.0389,-0.0329,-0.0284,-0.0211,-0.0164,-0.0131,-0.0084,-0.0032,0.002,-0.0012,-0.0008,0.0021,0.0128,0.0153,0.0166,0.0047,0.0049,0.005,0.0133,0,-0.0596,-0.0618,-0.0589,-0.0599,-0.0602,-0.0545,-0.0524,-0.0473,-0.0416,-0.036,-0.0269,-0.0214,-0.0173,-0.0141,-0.0081,-0.0003,0.0045,-0.0005,0.0119,0.0122,0.0146,0.0179,0.0162,0.0237,0.0142,0.0144,0.0145,0,-0.0646,-0.065,-0.0676,-0.0648,-0.0644,-0.0638,-0.0585,-0.0559,-0.0462,-0.0414,-0.0327,-0.0252,-0.0156,-0.0131,0.0017,-0.0017,0.0049,0.0109,0.0114,0.0158,0.0167,0.022,0.0258,0.0161,0.016,0.0159,0.0158,0,-0.0708,-0.0706,-0.0729,-0.0723,-0.0688,-0.0682,-0.0656,-0.0578,-0.0546,-0.0444,-0.0402,-0.0273,-0.0207,-0.0095,0.0035,0.0027,0.0191,0.0195,0.0281,0.0283,0.0304,0.0305,0.0295,0.0295,0.0294,0.0294,0.0294,0,-0.0762,-0.0777,-0.0762,-0.0775,-0.0787,-0.0741,-0.073,-0.068,-0.0603,-0.0557,-0.0436,-0.0365,-0.0194,-0.0072,0.0034,0.0193,0.0194,0.0292,0.0317,0.029,0.0289,0.0252,0.0246,0.0297,0.0297,0.0296,0.0295,0,-0.0823,-0.0818,-0.0841,-0.0824,-0.0821,-0.083,-0.079,-0.0772,-0.0694,-0.063,-0.0598,-0.0426,-0.0259,-0.0091,0.0097,0.0191,0.0334,0.0383,0.0332,0.035,0.0384,0.0375,0.0492,0.0494,0.0495,0.0497,0.0498,0,-0.0854,-0.0879,-0.0889,-0.0906,-0.0903,-0.0904,-0.09,-0.0831,-0.0797,-0.0661,-0.0627,-0.045,-0.03,-0.0011,0.0188,0.0392,0.0382,0.0476,0.0467,0.0398,0.041,0.0399,0.0388,0.0474,0.0475,0.0475,0.0476,0,-0.0905,-0.0916,-0.0934,-0.0975,-0.0989,-0.0995,-0.0975,-0.0957,-0.0862,-0.0784,-0.0641,-0.0512,-0.0218,0.0038,0.0298,0.0403,0.0446,0.0496,0.0462,0.0424,0.0387,0.0397,0.0386,0.0482,0.0481,0.0481,0.048,0.048,-0.0939,-0.0969,-0.0999,-0.1033,-0.1057,-0.1065,-0.1053,-0.1003,-0.0938,-0.0779,-0.0659,-0.043,-0.0195,0.0206,0.0376,0.0528,0.0525,0.0561,0.0556,0.0551,0.0532,0.0501,0.0611,0.0611,0.0611,0.0612,0.0612,0,-0.0964,-0.1002,-0.1046,-0.1085,-0.1115,-0.1112,-0.1083,-0.1037,-0.0943,-0.0769,-0.0596,-0.0313,-0.0021,0.0207,0.0468,0.0615,0.0586,0.062,0.0563,0.0557,0.0552,0.053,0.061,0.0611,0.0611,0.0611,0,0,-0.098,-0.1028,-0.1053,-0.1115,-0.1144,-0.1148,-0.1124,-0.1033,-0.0895,-0.0703,-0.0512,-0.0263,0.0015,0.0199,0.0382,0.051,0.0485,0.0506,0.0494,0.04,0.0393,0.0509,0.0469,0,0,0,0,0]}],[{"header":{"parameterUnit":"m.s-1","parameterCategory":2,"la1":30.2991,"la2":30.254,"lo1":-89.0895,"lo2":-89.0444,"dy":0.0017,"dx":0.0017,"nx":28,"ny":28,"refTime":"2024-03-13T21:00:00:Z","depth":"4","parameterNumber":2,"parameterNumberName":"U-component_of_CURRENTS"},"data":[0,0,0,0,0,0,0,0,0,0,0,0,0,0,0,0,0,0,0,0,0,0,0,0,0,0,0,0,0,0,0,0,0,0,0,0,0,0,0,0,0,0,0,0,0,0,0,0,0,0,0,0,0,0,0,0,0,0,-0.1694,-0.1695,0,-0.1743,-0.1744,-0.1744,-0.1758,-0.1758,-0.1758,-0.1758,-0.1823,-0.1825,-0.1826,0,0,0,0,0,0,0,0,0,0,0,0,0,-0.1602,-0.1604,-0.1694,-0.1695,-0.1696,-0.1743,-0.1744,-0.1744,-0.1758,-0.1758,-0.1758,-0.1758,-0.1822,-0.1824,-0.1827,0,0,0,0,0,0,0,0,0,0,0,0,0,-0.1644,-0.1604,-0.1694,-0.171,-0.1712,-0.1743,-0.1744,-0.1744,-0.1758,-0.1758,-0.1758,-0.1758,-0.1822,-0.1824,-0.1827,-0.1844,0,0,-0.1835,-0.1836,0,0,0,0,0,0,0,0,-0.1641,-0.1647,-0.1707,-0.1709,-0.1712,-0.1747,-0.1735,-0.1779,-0.1759,-0.1738,-0.1758,-0.1758,-0.1801,-0.1805,-0.1811,-0.1847,-0.185,-0.1835,-0.1837,-0.1838,-0.1839,0,0,0,0,0,0,0,-0.1638,-0.1645,-0.1711,-0.1708,-0.1711,-0.1712,-0.1718,-0.1743,-0.1768,-0.174,-0.1742,-0.1751,-0.1802,-0.1808,-0.1812,-0.1851,-0.1835,-0.1837,-0.1839,-0.184,-0.1904,-0.1904,0,0,0,0,0,0,-0.1638,-0.1642,-0.171,-0.1713,-0.1678,-0.1714,-0.172,-0.1734,-0.1767,-0.1773,-0.1751,-0.1752,-0.1804,-0.1809,-0.1815,-0.1857,-0.1838,-0.184,-0.1842,-0.1904,-0.1904,-0.1904,0,0,0,0,0,0,-0.1636,-0.1644,-0.1708,-0.168,-0.1689,-0.1716,-0.1731,-0.1735,-0.1767,-0.1776,-0.1781,-0.1783,-0.1804,-0.1811,-0.1847,-0.1859,-0.1841,-0.1844,-0.1904,-0.1904,-0.1904,-0.193,0,0,0,0,0,0,-0.1633,-0.1643,-0.1665,-0.168,-0.169,-0.1729,-0.1731,-0.1736,-0.1773,-0.1775,-0.1805,-0.1809,-0.1804,-0.1843,-0.185,-0.1862,-0.1846,-0.1903,-0.1904,-0.1904,-0.1929,-0.1931,-0.1933,0,0,0,0,0,-0.163,-0.165,-0.1665,-0.1674,-0.1715,-0.173,-0.1735,-0.1752,-0.1775,-0.1783,-0.1806,-0.1809,-0.1848,-0.1846,-0.1854,-0.1867,-0.1903,-0.1904,-0.1904,-0.1928,-0.1931,-0.1933,0,0,0,0,0,0,-0.1625,-0.1655,-0.1671,-0.1702,-0.1719,-0.1733,-0.1753,-0.1772,-0.1799,-0.1813,-0.1823,-0.1829,-0.1858,-0.1862,-0.1859,-0.1883,-0.1872,-0.1874,-0.1888,-0.189,-0.1892,-0.1898,-0.1848,0,0,0,0,0,-0.1635,-0.1659,-0.1681,-0.1709,-0.1721,-0.1747,-0.1765,-0.1777,-0.1798,-0.1812,-0.1832,-0.185,-0.1862,-0.1877,-0.1884,-0.1914,-0.1904,-0.1922,-0.1924,-0.1926,-0.1934,-0.1913,-0.1914,-0.1905,-0.1905,-0.1905,0,0,-0.1646,-0.1663,-0.1681,-0.171,-0.173,-0.1742,-0.1757,-0.1787,-0.1803,-0.1816,-0.1853,-0.1865,-0.187,-0.1888,-0.1901,-0.1898,-0.1924,-0.1926,-0.1927,-0.1935,-0.1913,-0.1914,-0.1915,-0.1905,-0.1905,-0.1905,0,0,-0.1654,-0.1691,-0.1705,-0.1718,-0.1748,-0.1761,-0.1777,-0.1805,-0.1826,-0.1861,-0.1866,-0.1885,-0.1918,-0.191,-0.1914,-0.1935,-0.1933,-0.1943,-0.1966,-0.1946,-0.1946,-0.1947,-0.1943,-0.1943,-0.1947,-0.1947,-0.1947,0,-0.1668,-0.1689,-0.1711,-0.1718,-0.1739,-0.1772,-0.1788,-0.1808,-0.1844,-0.1865,-0.1874,-0.191,-0.1919,-0.1931,-0.1939,-0.194,-0.1939,-0.1959,-0.1948,-0.1948,-0.1948,-0.1945,-0.1944,-0.1948,-0.1948,-0.1948,-0.1948,0,-0.1667,-0.1697,-0.1707,-0.1729,-0.1748,-0.1772,-0.1797,-0.1827,-0.1865,-0.1882,-0.1917,-0.1924,-0.1944,-0.1946,-0.1959,-0.1966,-0.197,-0.1951,-0.1944,-0.1951,-0.1947,-0.1946,-0.195,-0.1949,-0.1949,-0.1949,0,0,-0.1662,-0.1704,-0.1709,-0.173,-0.1763,-0.1777,-0.1809,-0.1845,-0.1878,-0.1902,-0.1935,-0.1952,-0.1969,-0.1974,-0.1982,-0.1976,-0.1981,-0.198,-0.1979,-0.198,-0.1958,-0.1835,-0.1822,-0.1967,-0.1967,-0.1966,-0.1958,0,-0.1662,-0.1688,-0.1707,-0.174,-0.1759,-0.1797,-0.1824,-0.1858,-0.1896,-0.1929,-0.194,-0.1971,-0.1974,-0.1999,-0.199,-0.1988,-0.198,-0.1987,-0.1948,-0.1948,-0.1839,-0.1816,-0.1966,-0.1957,-0.1957,-0.1957,-0.1957,0,-0.164,-0.1668,-0.1705,-0.176,-0.1774,-0.1801,-0.1862,-0.1889,-0.1932,-0.1962,-0.1986,-0.2002,-0.2016,-0.2009,-0.1996,-0.2007,-0.1992,-0.1978,-0.1977,-0.1852,-0.1821,-0.1946,-0.1955,-0.1955,-0.1955,-0.1955,-0.1955,0,-0.1605,-0.1662,-0.1702,-0.1717,-0.1778,-0.1816,-0.1857,-0.1907,-0.1932,-0.1989,-0.2012,-0.2026,-0.2038,-0.2019,-0.2004,-0.2011,-0.1974,-0.1966,-0.1836,-0.1828,-0.1934,-0.1934,-0.1939,-0.1939,-0.1939,-0.1939,-0.1939,0,-0.1571,-0.1601,-0.1701,-0.1713,-0.1763,-0.1817,-0.1867,-0.1909,-0.1964,-0.1974,-0.2032,-0.2029,-0.2043,-0.2025,-0.2007,-0.1911,-0.1968,-0.1833,-0.1806,-0.1947,-0.1948,-0.1934,-0.1934,-0.1939,-0.1939,-0.1939,-0.1939,0,-0.1491,-0.1563,-0.1605,-0.1704,-0.174,-0.1771,-0.1857,-0.1882,-0.1959,-0.1972,-0.1993,-0.2035,-0.2008,-0.2001,-0.1966,-0.1894,-0.183,-0.1782,-0.1947,-0.1932,-0.1707,-0.1708,-0.1635,-0.163,-0.1626,-0.1623,-0.162,0,-0.1443,-0.1464,-0.1578,-0.1606,-0.1653,-0.1721,-0.1758,-0.1856,-0.1873,-0.1947,-0.1932,-0.1954,-0.1958,-0.1808,-0.1824,-0.1757,-0.1731,-0.1698,-0.1689,-0.1689,-0.1671,-0.1679,-0.1685,-0.1614,-0.1613,-0.1612,-0.1611,0,-0.1341,-0.1403,-0.1438,-0.1505,-0.1562,-0.1603,-0.167,-0.1676,-0.1767,-0.1858,-0.1815,-0.1789,-0.175,-0.171,-0.1666,-0.1621,-0.1718,-0.1656,-0.1664,-0.1656,-0.1662,-0.1651,-0.1661,-0.1597,-0.1599,-0.16,-0.1601,0,-0.1262,-0.1265,-0.1334,-0.1374,-0.1444,-0.1461,-0.1515,-0.1537,-0.1571,-0.167,-0.1648,-0.1674,-0.1725,-0.1638,-0.1598,-0.154,-0.1516,-0.1465,-0.1482,-0.1498,-0.1452,-0.1441,-0.1272,0,0,0,0,0,-0.1175,-0.1168,-0.1197,-0.1234,-0.1302,-0.1339,-0.1438,-0.1497,-0.1602,-0.1526,-0.1582,-0.1541,-0.1481,-0.1501,-0.1407,-0.1531,-0.1522,-0.1416,-0.1474,-0.1521,-0.1537,-0.1494,0,0,0,0,0,0,-0.1111,-0.1133,-0.1146,-0.1114,-0.1114,-0.1167,-0.1226,-0.1302,-0.1273,-0.1384,-0.1358,-0.1435,-0.1399,-0.1494,-0.1367,-0.1371,-0.1373,-0.1443,-0.1438,-0.1512,-0.1526,-0.1539,-0.15,0,0,0,0,0]},{"header":{"parameterUnit":"m.s-1","parameterCategory":2,"la1":30.2991,"la2":30.254,"lo1":-89.0895,"lo2":-89.0444,"dy":0.0017,"dx":0.0017,"nx":28,"ny":28,"refTime":"2024-03-13T21:00:00:Z","depth":"4","parameterNumber":3,"parameterNumberName":"V-component_of_CURRENTS"},"data":[0,0,0,0,0,0,0,0,0,0,0,0,0,0,0,0,0,0,0,0,0,0,0,0,0,0,0,0,0,0,0,0,0,0,0,0,0,0,0,0,0,0,0,0,0,0,0,0,0,0,0,0,0,0,0,0,0,0,-0.0248,-0.0248,0,-0.0218,-0.0218,-0.0217,-0.0186,-0.0186,-0.0185,-0.0185,-0.0117,-0.0115,-0.0114,0,0,0,0,0,0,0,0,0,0,0,0,0,-0.0257,-0.0257,-0.0248,-0.0248,-0.0247,-0.0218,-0.0218,-0.0217,-0.0186,-0.0186,-0.0185,-0.0184,-0.0117,-0.0115,-0.0114,0,0,0,0,0,0,0,0,0,0,0,0,0,-0.0244,-0.0258,-0.0248,-0.0227,-0.0225,-0.0218,-0.0218,-0.0217,-0.0186,-0.0186,-0.0185,-0.0184,-0.0118,-0.0116,-0.0114,-0.0117,0,0,-0.0108,-0.0107,0,0,0,0,0,0,0,0,-0.0245,-0.0244,-0.0231,-0.0229,-0.0226,-0.0204,-0.0196,-0.0182,-0.0187,-0.0202,-0.0185,-0.0184,-0.0142,-0.0138,-0.0136,-0.0114,-0.0111,-0.0107,-0.0106,-0.0105,-0.0105,0,0,0,0,0,0,0,-0.0246,-0.0245,-0.0237,-0.023,-0.0228,-0.0212,-0.021,-0.0193,-0.0177,-0.0201,-0.0198,-0.0193,-0.0141,-0.0138,-0.0134,-0.011,-0.0107,-0.0106,-0.0104,-0.0104,-0.0094,-0.0095,0,0,0,0,0,0,-0.0249,-0.0246,-0.0238,-0.0236,-0.0233,-0.0213,-0.021,-0.0213,-0.0178,-0.0172,-0.0194,-0.0192,-0.0142,-0.0137,-0.0132,-0.0137,-0.0105,-0.0103,-0.0102,-0.0093,-0.0094,-0.0095,0,0,0,0,0,0,-0.025,-0.0249,-0.0239,-0.0239,-0.0236,-0.0213,-0.0217,-0.0213,-0.021,-0.0173,-0.0166,-0.0195,-0.0141,-0.0135,-0.0122,-0.0134,-0.0103,-0.0101,-0.0092,-0.0093,-0.0095,-0.0146,0,0,0,0,0,0,-0.0251,-0.025,-0.0259,-0.024,-0.0236,-0.0242,-0.0217,-0.0213,-0.0208,-0.0205,-0.0172,-0.0165,-0.014,-0.0126,-0.012,-0.0131,-0.0099,-0.0091,-0.0092,-0.0094,-0.0143,-0.0149,-0.0154,0,0,0,0,0,-0.0251,-0.0267,-0.026,-0.0259,-0.0248,-0.0242,-0.024,-0.0221,-0.0209,-0.0214,-0.0192,-0.0166,-0.0133,-0.0125,-0.0118,-0.0128,-0.009,-0.0092,-0.0094,-0.0141,-0.0148,-0.0154,0,0,0,0,0,0,-0.0278,-0.0265,-0.0257,-0.0269,-0.0259,-0.0237,-0.0242,-0.0227,-0.0215,-0.0213,-0.0175,-0.0167,-0.0163,-0.0142,-0.0133,-0.0133,-0.0109,-0.0109,-0.0146,-0.0153,-0.0158,-0.0153,-0.0098,0,0,0,0,0,-0.0289,-0.0297,-0.0279,-0.029,-0.0287,-0.0266,-0.0262,-0.025,-0.0233,-0.0227,-0.0203,-0.0182,-0.0169,-0.0157,-0.0143,-0.0139,-0.0096,-0.0143,-0.0149,-0.0153,-0.0146,-0.0105,-0.0105,-0.0102,-0.0102,-0.0102,0,0,-0.0304,-0.0297,-0.0303,-0.0297,-0.0288,-0.0293,-0.0263,-0.0263,-0.0266,-0.0222,-0.0222,-0.0202,-0.0174,-0.0172,-0.0168,-0.0153,-0.0131,-0.0156,-0.016,-0.015,-0.0107,-0.0107,-0.0107,-0.0103,-0.0103,-0.0103,0,0,-0.0336,-0.0331,-0.0347,-0.0342,-0.0332,-0.0319,-0.0321,-0.0303,-0.0294,-0.0291,-0.0263,-0.0248,-0.0227,-0.0207,-0.0195,-0.0222,-0.0165,-0.0222,-0.0238,-0.0199,-0.0198,-0.0197,-0.0133,-0.0125,-0.022,-0.022,-0.022,0,-0.0355,-0.037,-0.0352,-0.0363,-0.0362,-0.0334,-0.0348,-0.0338,-0.0319,-0.0309,-0.0299,-0.0264,-0.0244,-0.0229,-0.024,-0.0233,-0.019,-0.0215,-0.0204,-0.0202,-0.02,-0.0134,-0.0126,-0.0223,-0.0223,-0.0222,-0.0222,0,-0.0393,-0.0406,-0.0415,-0.0419,-0.0417,-0.0426,-0.0406,-0.0402,-0.0385,-0.0366,-0.035,-0.0321,-0.0293,-0.0292,-0.0272,-0.0254,-0.022,-0.0219,-0.0184,-0.0203,-0.0133,-0.0123,-0.0227,-0.0226,-0.0225,-0.0224,0,0,-0.0434,-0.0441,-0.0446,-0.0452,-0.0446,-0.0446,-0.0452,-0.044,-0.043,-0.0413,-0.039,-0.0378,-0.0347,-0.0331,-0.0304,-0.027,-0.022,-0.0239,-0.0235,-0.0168,-0.0107,-0.0104,-0.0092,-0.0214,-0.0213,-0.0212,-0.0059,0,-0.0469,-0.0503,-0.0494,-0.052,-0.0531,-0.0506,-0.0509,-0.0493,-0.0468,-0.0438,-0.04,-0.0374,-0.0366,-0.0345,-0.0314,-0.0239,-0.0198,-0.026,-0.0104,-0.0098,-0.0089,-0.0083,-0.0209,-0.0051,-0.0049,-0.0047,-0.0046,0,-0.0508,-0.0523,-0.056,-0.056,-0.0561,-0.0573,-0.0557,-0.0554,-0.0508,-0.0481,-0.0445,-0.04,-0.0344,-0.0336,-0.022,-0.0256,-0.0188,-0.0132,-0.0125,-0.0096,-0.0078,-0.0031,-0.0027,-0.0029,-0.003,-0.0031,-0.0032,0,-0.0541,-0.0564,-0.0595,-0.0599,-0.0599,-0.0607,-0.0604,-0.0573,-0.0559,-0.05,-0.0465,-0.04,-0.0346,-0.0268,-0.016,-0.018,-0.0015,-0.0028,0.0042,0.0044,0.002,0.0018,0.0053,0.0053,0.0052,0.0052,0.0051,0,-0.0574,-0.0598,-0.0616,-0.0633,-0.0657,-0.0643,-0.0652,-0.063,-0.0587,-0.0556,-0.049,-0.0434,-0.0326,-0.0221,-0.014,-0.0009,0.0002,0.0052,0.0081,-0.0004,-0.0012,0.0029,0.0024,0.0058,0.0056,0.0055,0.0054,0,-0.0602,-0.0619,-0.0653,-0.067,-0.0678,-0.0696,-0.069,-0.0683,-0.0637,-0.0586,-0.0561,-0.0438,-0.0296,-0.0179,-0.002,0.0027,0.0144,0.0185,0.0116,0.0136,0.0178,0.0168,0.0285,0.0287,0.0288,0.0289,0.0289,0,-0.0614,-0.0642,-0.0686,-0.071,-0.0723,-0.0744,-0.0753,-0.072,-0.0695,-0.0585,-0.0548,-0.0399,-0.031,-0.0064,0.0038,0.0212,0.0213,0.0278,0.0195,0.0184,0.0201,0.0189,0.0179,0.0291,0.0291,0.0292,0.0292,0,-0.0633,-0.0661,-0.0688,-0.0743,-0.077,-0.0789,-0.0789,-0.0766,-0.0702,-0.0661,-0.0509,-0.0375,-0.0205,-0.0045,0.0097,0.0205,0.0235,0.029,0.0287,0.0209,0.0192,0.0205,0.0194,0.0296,0.0295,0.0295,0.0295,0,-0.0646,-0.0673,-0.0718,-0.0757,-0.0801,-0.081,-0.0809,-0.0749,-0.0711,-0.0577,-0.0526,-0.0343,-0.0233,-0.0045,0.008,0.0195,0.0203,0.021,0.0212,0.0209,0.0119,0.0082,0.0189,0,0,0,0,0,-0.0644,-0.0676,-0.0722,-0.0765,-0.0808,-0.0827,-0.0817,-0.0798,-0.0728,-0.0622,-0.0568,-0.0406,-0.0184,-0.0081,0.0037,0.0069,0.0199,0.0206,0.0202,0.0317,0.0313,0.0217,0,0,0,0,0,0,-0.0646,-0.0694,-0.0717,-0.0758,-0.0788,-0.0822,-0.0817,-0.0774,-0.0697,-0.0613,-0.0487,-0.0404,-0.0187,-0.0253,0.0031,0.0068,0.0075,0.0315,0.0317,0.032,0.0315,0.0312,0.0212,0,0,0,0,0]}]]